Regional Weather Roundup
Issued by NWS San Angelo, TX

Current Version | Previous Version | Text Only | Print | Product List | Glossary On
Versions: 1 2 3 4 5 6 7 8 9 10 11 12 13 14 15 16 17 18 19 20 21 22 23 24 25 26 27 28 29 30 31 32 33 34 35 36 37 38 39 40 41 42 43 44 45 46 47 48 49 50
977
ASUS44 KSJT 272010
RWRSJT
WEST CENTRAL TEXAS REGIONAL WEATHER ROUNDUP
NATIONAL WEATHER SERVICE SAN ANGELO TX
300 PM CDT TUE JUN 27 2017

NOTE: "FAIR" INDICATES FEW OR NO CLOUDS BELOW 12,000 FEET WITH NO
SIGNIFICANT WEATHER AND/OR OBSTRUCTIONS TO VISIBILITY.

TXZ049-054-064>066-071>073-076>078-098-099-113-114-127-128-139-140-
154-155-168>170-272100
...LOCATIONS ACROSS WEST CENTRAL TEXAS...

CITY           SKY/WX    TMP DP  RH WIND       PRES   REMARKS
SAN ANGELO     MOSUNNY   90  65  43 VRB7      30.01F
ABILENE        MOSUNNY   87  63  44 SE13G18   30.01F
DYESS AFB        N/A     89  63  42 S10         N/A
JUNCTION       MOSUNNY   88  66  48 E10       30.00F
SWEETWATER     SUNNY     88  60  38 S8G16     30.05F
BROWNWOOD      PTSUNNY   86  68  54 S6        30.01F
COLEMAN        MOCLDY    90  62  39 SE14G22   30.01F
SONORA         MOSUNNY   88  61  40 SE9G16    30.04F
OZONA          FAIR      90  57  33 SE6       30.03F
BRADY          NOT AVBL
$$

TEXAS PANHANDLE/OKLAHOMA PANHANDLE

CITY           SKY/WX    TMP DP  RH WIND       PRES   REMARKS
AMARILLO       NOT AVBL
BORGER         SUNNY     93  56  28 SW20G31   29.96F
CANADIAN       SUNNY     94  58  30 SW22G33   29.93F
DALHART        SUNNY     92  55  28 S22G36    29.98F
DUMAS          CLEAR     90  55  30 SW21G29   29.98F
GUYMON         NOT AVBL
HEREFORD       CLEAR     88  59  37 SW18G24   30.03F
PAMPA          CLEAR     93  55  27 S21G30    29.99F
PERRYTON       SUNNY     96  55  24 S20G33    29.92F
$$

SOUTHERN PANHANDLE/SOUTH PLAINS/ROLLING PLAINS

CITY           SKY/WX    TMP DP  RH WIND       PRES   REMARKS
LUBBOCK        MOSUNNY   87  58  37 SW9       30.04F
SNYDER         SUNNY     86  64  46 S9        30.03F
CHILDRESS      SUNNY     92  59  33 S13       29.97F
SEMINOLE       CLEAR     88  51  27 SE7       30.06F
$$

PERMIAN BASIN

CITY           SKY/WX    TMP DP  RH WIND       PRES   REMARKS
MIDLAND        MOSUNNY   86  65  49 S9        30.04F
ODESSA         SUNNY     86  62  44 E12       30.05F
WINK           SUNNY     91  54  28 SE3G17    30.00F
$$

FAR WEST/SOUTHWEST MOUNTAINS/TRANS PECOS

CITY           SKY/WX    TMP DP  RH WIND       PRES   REMARKS
ALPINE         PTCLDY    90  49  25 E12       30.15F
DRYDEN           N/A     89  63  41 E9        29.97F
EL PASO        MOSUNNY   91  52  26 SW6       30.05F
FORT STOCKTON  MOSUNNY   90  57  32 E6        30.01F
GUADALUPE PASS SUNNY     89  55  31 W14G22    30.18F
MARFA          CLOUDY    85  53  33 SE10      30.13F
PECOS          PTCLDY    94  56  27 S3G18     29.98F
$$

DALLAS/FORT WORTH METROPLEX

CITY           SKY/WX    TMP DP  RH WIND       PRES   REMARKS
DFW AIRPORT    CLOUDY    90  70  51 E8        29.95F
FTW MEACHAM    MOSUNNY   92  71  50 S9        29.96F
DAL-EXECUTIVE  MOSUNNY   91  72  53 E7        29.96F
GRAND PRAIRIE  SUNNY     88  66  48 MISG      29.98
ADDISON        PTSUNNY   75  68  78 NW10G25   29.99S
MESQUITE       PTCLDY    90  72  55 E10       29.97F
LANCASTER      PTCLDY    90  70  51 S6        29.98S
$$

NORTH CENTRAL TEXAS

CITY           SKY/WX    TMP DP  RH WIND       PRES   REMARKS
SHRMAN/DENISON PTCLDY    89  70  52 E10       29.98F
GAINESVILLE    MOSUNNY   89  70  52 SE5       29.99F
BRIDGEPORT     PTCLDY    90  68  48 S8        29.98F
DENTON         PTSUNNY   89  70  53 SE6       29.96F THUNDER
WAXAHACHIE     PTCLDY    89  71  54 CALM      29.98F
GRANBURY       PTCLDY    90  68  47 E8        29.98F
$$

WESTERN NORTH TEXAS

CITY           SKY/WX    TMP DP  RH WIND       PRES   REMARKS
WICHITA FALLS  PTSUNNY   90  68  48 SE14G21   29.96F
VERNON         CLEAR     92  58  31 SE14G20   29.96F
BRECKENRIDGE   MOCLDY    89  64  44 S7        29.98F
COMANCHE       PTSUNNY   84  69  61 SE7       30.01F
$$

CENTRAL AND SOUTH CENTRAL TEXAS

CITY           SKY/WX    TMP DP  RH WIND       PRES   REMARKS
AUSTIN/BERGSTM PTSUNNY   90  70  51 NE9G16    29.95F
WACO           PTSUNNY   88  70  55 SE8       29.97F
HILLSBORO      PTCLDY    88  71  56 S5        29.98F
TEMPLE         NOT AVBL
KILLEEN-GRAY   NOT AVBL
FORT HOOD      NOT AVBL
GEORGETOWN     MOSUNNY   90  68  48 E8        29.98F
LAGO VISTA     MOCLDY    87  69  55 E6        30.00F
SAN MARCOS     PTSUNNY   88  72  58 NE12      30.97R
NEW BRAUNFELS  SUNNY     89  73  59 E7        29.95F
RANDOLPH AFB   NOT AVBL
SAN ANTONIO    CLOUDY    90  68  48 E12       29.96F
STINSON        CLOUDY    87  72  60 SE10      29.94F
PLEASANTON     NOT AVBL
LA GRANGE      CLOUDY    88  72  59 E5        29.94F
GIDDINGS       PTCLDY    88  68  51 E8        29.97F
$$

EAST TEXAS

CITY           SKY/WX    TMP DP  RH WIND       PRES   REMARKS
PARIS            N/A     85  70  60 E10       30.00F
CLARKSVILLE    NOT AVBL
TYLER          PTSUNNY   88  69  53 E7        29.98F
LONGVIEW       PTSUNNY   87  71  58 E8        29.98F
PALESTINE      CLEAR     90  71  53 E7        29.98F
NACOGDOCHES    PTSUNNY   88  72  58 E9        29.96F
$$

TEXAS HILL COUNTRY AND EDWARDS PLATEAU

CITY           SKY/WX    TMP DP  RH WIND       PRES   REMARKS
LLANO          CLEAR     90  68  48 E3        30.02F
HORSESHOE BAY  LGT RAIN  78  73  85 MISG      30.00S
KERRVILLE      PTSUNNY   85  69  59 NE9       30.01F
FREDERICKSBRG  PTSUNNY   80  66  63 E14G20    30.02F
ROCKSPRINGS    PTCLDY    86  63  45 E5        30.04F
HONDO          CLOUDY    89  70  53 E12G17    29.97F
UVALDE         MOCLDY    85  69  59 E10G16    29.97F
DEL RIO        MOSUNNY   90  67  46 SE9       29.93F
$$

SOUTHEAST TEXAS

CITY           SKY/WX    TMP DP  RH WIND       PRES   REMARKS
COLLEGE STN    SUNNY     86  71  60 SE12G17   29.96F
CALDWELL       NOT AVBL
CROCKETT       MOCLDY    86  72  62 E3        30.00F
BRENHAM        MOSUNNY   89  73  58 E6        29.97F
HUNTSVILLE     CLOUDY    90  67  46 E6        29.97F
CONROE         CLOUDY    87  72  60 SE9       29.97F
HOUSTON BUSH   LGT RAIN  77  73  87 SE9       29.98F
HOUSTON HOBBY  LGT RAIN  82  74  76 S7        29.98S
PERLAND        NOT AVBL
WHARTON        LGT RAIN  75  73  91 CALM      29.98F
$$

THE UPPER TEXAS COAST

CITY           SKY/WX    TMP DP  RH WIND       PRES   REMARKS
ORANGE         CLOUDY    80  77  90 CALM      30.00F
PORT ARTHUR    CLOUDY    82  73  74 SE5       29.98S
GALVESTON      LGT RAIN  80  76  87 E9        29.98F
ANGLETON       MOSUNNY   83  74  74 E9        29.97S
BAY CITY       MOCLDY    87  71  60 E9        29.95F
$$

TEXAS COASTAL BEND, RIO GRANDE PLAINS DEEP SOUTH TEXAS

CITY           SKY/WX    TMP DP  RH WIND       PRES   REMARKS
VICTORIA       PTSUNNY   84  73  69 E12       29.95F
BEEVILLE       FAIR      84  74  71 SE10      29.95F
ROCKPORT       CLOUDY    80  74  81 SE9       29.93F
PORT ARANSAS   CLOUDY    81  74  79 E8        29.93F
PORT LAVACA    PTCLDY    85  77  77 E8        29.94F
CORPUS CHRISTI LGT RAIN  85  76  74 E12       29.92F
KINGSVILLE NAS PTSUNNY   85  75  72 E17       29.91F
COTULLA        TSTM      75  73  93 E15       29.96R VSB 1/2
LAREDO         PTSUNNY   93  70  46 E15       29.89F
BROWNSVILLE    TSTM      73  70  90 CALM      29.91R FOG
PORT ISABEL    LGT RAIN  79  77  94 NE9       29.88F
HEBBRONVILLE   CLOUDY    80  74  82 E9        29.93F
MCALLEN        MOSUNNY   96  72  45 NE14      29.87F
WESLACO        CLOUDY    89  73  59 E13       29.87F
FALFURRIAS     MOCLDY    83  74  72 E15G21    29.91F
EDINBURG       MOCLDY    92  70  48 NE14G20   29.89F
$$




USA.gov is the U.S. government's official web portal to all federal, state and local government web resources and services.